User: anonymous   Login
Location: Unspecified
(0.0000°N, 0.0000°E)
Time: 05:43:21
(UTC+00:00)
Language:

STARLINK-1566 - Orbit

View from above orbital plane
View from above orbital plane
View from above satellite
View from above satellite

Ground track
Ground track

The orbit is defined by the following mean orbital elements,

1 46079U          26145.29467362 +.00000000 +00000-0 -23237-3 0 00007
2 46079  53.1598 104.8459 0001085  72.8836 287.2284 15.31675389    09
Epoch (UTC): 25 May 2026 07:04:19
Eccentricity: 0.0001085
inclination: 53.1598°
perigee height: 470 km
apogee height: 472 km
right ascension of ascending node: 104.8459°
argument of perigee: 72.8836°
revolutions per day: 15.31675389
mean anomaly at epoch: 287.2284°

The dashed part of the orbit path shows where the satellite is in the earth's shadow,  

DLR